Location: Kennington
(51.1500°N, 0.8833°E)
Time: 11:20:36
(UTC+00:00)

H-2A R/B - Pass Details

Date: 21 September 2020
Orbit: 577 x 655 km, 98.5° (Epoch: 30 October)

Event Time Altitude Azimuth Distance (km) Brightness Sun altitude
Rises 04:40:42 0° 201° (SSW) 2,901 5.2 -10.3°
Reaches altitude 10° 04:43:17 10° 217° (SW) 2,014 4.2 -9.9°
Maximum altitude 04:46:41 22° 268° (W) 1,412 3.3 -9.4°
Drops below altitude 10° 04:50:10 10° 319° (NW) 2,058 4.5 -8.8°
Sets 04:52:52 0° 335° (NNW) 2,983 5.4 -8.4°
